Volver al catálogo

SL-14 R/B

ActivoPO
NORAD 27061·ROCKET BODY·🇷🇺 Russia

Lanzado Dec 28, 2001 desde Plesetsk Cosmodrome

Loading…

Próximos Pases (próximas 24 horas)

TLE

ActualizadoSource: Space-Track

Época: Sep 14, 2026, 22:12 UTC

1 27061U 01058G   26257.92563069  .00000002  00000-0 -48324-4 0  9990
2 27061  82.5407 237.6726 0042303 274.5039  99.5592 12.53957684131272

Sigue SL-14 R/B en tiempo real con AllMySat

Download on the App Store